User: anonymous   Login
Location: Unspecified
(0.0000°N, 0.0000°E)
Time: 05:17:44
(UTC+00:00)
Language:

N. Korean satellite - Orbit

View from above orbital plane
View from above orbital plane
View from above satellite
View from above satellite

Ground track
Ground track

The orbit data is extracted from the following two-line orbital elements,

1 39026U 12072A   19083.85825908  .00001343  00000-0  51416-4 0  9990
2 39026  97.2120  89.7996 0039723  48.2946 312.1681 15.27557233348498
Epoch (UTC): 24 March 2019 20:35:53
Eccentricity: 0.0039723
inclination: 97.2120°
perigee height: 456 km
apogee height: 510 km
right ascension of ascending node: 89.7996°
argument of perigee: 48.2946°
revolutions per day: 15.27557233
mean anomaly at epoch: 312.1681°
orbit number at epoch: 34849

The dashed part of the orbit path shows where the satellite is in the earth's shadow,  

DLR